User: anonymous   Login
Location: Unspecified
(0.0000°N, 0.0000°E)
Time: 03:54:18
(UTC+02:00)
Language:

Iridium 75 - Orbit

View from above orbital plane
View from above orbital plane
View from above satellite
View from above satellite

Ground track
Ground track

The orbit data is extracted from the following two-line orbital elements,

1 25346U 98032E   16211.46311032  .00000025  00000-0  17754-5 0  9999
2 25346  86.3973 359.0194 0002176  91.6907 326.1430 14.34213509953410
Epoch (UTC): 29 July 2016 11:06:52
Eccentricity: 0.0002176
inclination: 86.3973°
perigee height: 776 km
apogee height: 779 km
right ascension of ascending node: 359.0194°
argument of perigee: 91.6907°
revolutions per day: 14.34213509
mean anomaly at epoch: 326.1430°
orbit number at epoch: 95341

The dashed part of the orbit path shows where the satellite is in the earth's shadow,  

DLR